EXS257 EGNT-LEMH

Flight info

Callsign EXS257
Flight time 2h 35m
Altitude 37000
Route GIRLI P18 GASKO P16 RIBEL UP16 CROFT UL612 HON SITET UN859 SOPIL BALAN EVPOK NARAK GAI LOMRA ROCAN GEANT GIR SALON SULID DIPES N727 SARGO
Aircraft A20N/M-SDE2E3FGHIJ1RWXY/LB1

Departure

Time 2026-04-30 18:25
Airport Newcastle International Airport (EGNT)

Arrival

Time 2026-04-30 21:01
Airport Menorca Airport (LEMH)
Time Latitude Longitude Altitude Speed Heading
2026-04-30 17:51 55.03742 -1.70671 267 ft 0 kts 184°
2026-04-30 18:14 55.03744 -1.70671 267 ft 3 kts 184°
2026-04-30 18:15 55.03808 -1.70703 267 ft 1 kts 95°
2026-04-30 18:18 55.03807 -1.70688 267 ft 3 kts 94°
2026-04-30 18:18 55.03804 -1.70619 267 ft 8 kts 94°
2026-04-30 18:18 55.03799 -1.70495 266 ft 12 kts 98°
2026-04-30 18:19 55.03732 -1.70428 265 ft 13 kts 182°
2026-04-30 18:19 55.03637 -1.70439 265 ft 14 kts 192°
2026-04-30 18:19 55.03592 -1.70574 267 ft 14 kts 261°
2026-04-30 18:19 55.03521 -1.70638 267 ft 12 kts 182°
2026-04-30 18:20 55.03512 -1.70638 267 ft 0 kts 182°
2026-04-30 18:23 55.03503 -1.70639 268 ft 3 kts 182°
2026-04-30 18:23 55.03468 -1.70642 268 ft 6 kts 183°
2026-04-30 18:23 55.03426 -1.70647 270 ft 6 kts 184°
2026-04-30 18:24 55.03376 -1.70605 272 ft 4 kts 117°
2026-04-30 18:24 55.03385 -1.70519 271 ft 12 kts 65°
2026-04-30 18:24 55.03478 -1.70157 268 ft 71 kts 65°
2026-04-30 18:25 55.03795 -1.68970 258 ft 142 kts 66°
2026-04-30 18:25 55.04668 -1.65571 1035 ft 191 kts 67°
2026-04-30 18:25 55.05236 -1.63647 1682 ft 205 kts 70°
2026-04-30 18:26 55.06405 -1.58937 2866 ft 241 kts 76°
2026-04-30 18:26 55.06970 -1.56080 3550 ft 256 kts 78°
2026-04-30 18:26 55.07484 -1.53020 4275 ft 268 kts 80°
2026-04-30 18:27 55.07312 -1.47078 6424 ft 220 kts 127°
2026-04-30 18:27 55.06242 -1.45370 7141 ft 207 kts 158°
2026-04-30 18:28 55.03498 -1.46063 7991 ft 219 kts 211°
2026-04-30 18:28 55.02249 -1.47884 8209 ft 249 kts 218°
2026-04-30 18:28 54.99391 -1.51725 8266 ft 258 kts 201°
2026-04-30 18:29 54.97760 -1.53079 8268 ft 259 kts 202°
2026-04-30 18:29 54.93082 -1.57951 8265 ft 261 kts 206°
2026-04-30 18:30 54.90475 -1.60570 8265 ft 261 kts 206°
2026-04-30 18:30 54.86803 -1.64299 8262 ft 261 kts 206°
2026-04-30 18:31 54.85236 -1.65904 8263 ft 262 kts 206°
2026-04-30 18:31 54.82092 -1.69126 8257 ft 262 kts 206°
2026-04-30 18:32 54.78956 -1.72334 8254 ft 262 kts 206°
2026-04-30 18:32 54.77388 -1.73937 8250 ft 262 kts 206°
2026-04-30 18:32 54.74238 -1.77150 8254 ft 264 kts 206°
2026-04-30 18:33 54.72660 -1.78756 8243 ft 263 kts 206°
2026-04-30 18:33 54.69265 -1.80927 8778 ft 261 kts 187°
2026-04-30 18:33 54.67477 -1.81453 9748 ft 260 kts 188°
2026-04-30 18:34 54.65681 -1.82015 10582 ft 267 kts 188°
2026-04-30 18:34 54.62438 -1.83047 11091 ft 304 kts 188°
2026-04-30 18:34 54.60309 -1.83725 11604 ft 316 kts 188°
2026-04-30 18:35 54.58140 -1.84416 12398 ft 319 kts 188°
2026-04-30 18:35 54.55936 -1.85115 13189 ft 323 kts 188°
2026-04-30 18:35 54.52984 -1.86047 14174 ft 329 kts 188°
2026-04-30 18:36 54.48426 -1.87480 15455 ft 338 kts 188°
2026-04-30 18:36 54.46851 -1.87975 15881 ft 341 kts 188°
2026-04-30 18:36 54.42119 -1.89459 17125 ft 351 kts 188°
2026-04-30 18:37 54.39703 -1.90215 17743 ft 355 kts 188°
2026-04-30 18:37 54.37293 -1.90968 18349 ft 360 kts 188°
2026-04-30 18:37 54.34818 -1.91741 18928 ft 363 kts 188°
2026-04-30 18:37 54.32330 -1.92518 19567 ft 364 kts 188°
2026-04-30 18:38 54.29798 -1.93307 20196 ft 366 kts 188°
2026-04-30 18:38 54.27323 -1.94078 20774 ft 367 kts 188°
2026-04-30 18:38 54.24810 -1.94987 21360 ft 371 kts 194°
2026-04-30 18:38 54.22386 -1.96684 21964 ft 376 kts 205°
2026-04-30 18:39 54.20205 -1.99199 22528 ft 383 kts 217°
2026-04-30 18:39 54.18277 -2.02274 23079 ft 387 kts 219°
2026-04-30 18:39 54.16297 -2.05490 23660 ft 389 kts 219°
2026-04-30 18:39 54.14352 -2.08631 24144 ft 391 kts 219°
2026-04-30 18:40 54.12361 -2.11828 24623 ft 393 kts 219°
2026-04-30 18:40 54.10363 -2.15024 25063 ft 396 kts 219°
2026-04-30 18:40 54.08346 -2.18246 25513 ft 398 kts 219°
2026-04-30 18:40 54.06317 -2.21480 25948 ft 400 kts 219°
2026-04-30 18:41 54.04273 -2.24714 26366 ft 402 kts 217°
2026-04-30 18:41 54.02081 -2.27621 26783 ft 401 kts 210°
2026-04-30 18:41 53.99681 -2.30035 27185 ft 400 kts 203°
2026-04-30 18:41 53.97134 -2.31913 27581 ft 399 kts 197°
2026-04-30 18:42 53.94526 -2.33560 27974 ft 402 kts 197°
2026-04-30 18:42 53.89263 -2.36926 28713 ft 406 kts 198°
2026-04-30 18:42 53.86612 -2.38628 29068 ft 408 kts 198°
2026-04-30 18:45 53.59062 -2.51115 32224 ft 417 kts 165°
2026-04-30 18:45 53.56344 -2.49422 32572 ft 418 kts 158°
2026-04-30 18:45 53.53672 -2.47497 32910 ft 417 kts 158°
2026-04-30 18:46 53.51006 -2.45597 33254 ft 417 kts 158°
2026-04-30 18:46 53.48326 -2.43699 33592 ft 416 kts 158°
2026-04-30 18:46 53.45663 -2.41819 33925 ft 416 kts 158°
2026-04-30 18:46 53.42994 -2.39939 34233 ft 415 kts 158°
2026-04-30 18:47 53.40330 -2.38065 34474 ft 416 kts 158°
2026-04-30 18:47 53.37656 -2.36187 34703 ft 416 kts 158°
2026-04-30 18:47 53.34992 -2.34317 34928 ft 416 kts 158°
2026-04-30 18:47 53.32316 -2.32442 35147 ft 416 kts 158°
2026-04-30 18:48 53.29641 -2.30570 35369 ft 417 kts 158°
2026-04-30 18:48 53.26967 -2.28701 35571 ft 417 kts 158°
2026-04-30 18:48 53.24292 -2.26834 35783 ft 417 kts 158°
2026-04-30 18:48 53.21614 -2.24967 35993 ft 417 kts 158°
2026-04-30 18:49 53.18929 -2.23097 36169 ft 418 kts 158°
2026-04-30 18:49 53.16255 -2.21239 36370 ft 418 kts 158°
2026-04-30 18:49 53.13568 -2.19374 36544 ft 418 kts 158°
2026-04-30 18:49 53.10876 -2.17509 36717 ft 419 kts 158°
2026-04-30 18:50 53.08192 -2.15650 36889 ft 419 kts 158°
2026-04-30 18:50 53.05503 -2.13791 37053 ft 419 kts 158°
2026-04-30 18:50 53.02807 -2.11929 37169 ft 420 kts 158°
2026-04-30 18:51 52.97430 -2.08225 37174 ft 418 kts 158°
2026-04-30 18:51 52.92057 -2.04533 37169 ft 418 kts 158°
2026-04-30 18:52 52.86690 -2.00856 37172 ft 418 kts 158°
2026-04-30 18:52 52.81317 -1.97185 37176 ft 418 kts 158°
2026-04-30 18:53 52.75972 -1.93541 37175 ft 418 kts 158°
2026-04-30 18:53 52.70595 -1.89886 37171 ft 418 kts 158°
2026-04-30 18:54 52.65221 -1.86243 37177 ft 418 kts 158°
2026-04-30 18:54 52.59847 -1.82610 37179 ft 418 kts 158°
2026-04-30 18:55 52.54470 -1.78983 37179 ft 418 kts 158°
2026-04-30 18:55 52.46399 -1.73558 37185 ft 418 kts 158°
2026-04-30 18:56 52.38315 -1.68146 37185 ft 418 kts 158°
2026-04-30 18:57 52.30327 -1.62389 37178 ft 419 kts 154°
2026-04-30 18:57 52.25086 -1.58207 37221 ft 419 kts 154°
2026-04-30 18:58 52.17193 -1.52059 37227 ft 419 kts 155°
2026-04-30 18:59 52.09283 -1.45970 37225 ft 420 kts 155°
2026-04-30 19:00 51.98687 -1.37850 37177 ft 421 kts 155°
2026-04-30 19:01 51.88072 -1.29757 37190 ft 422 kts 155°
2026-04-30 19:02 51.80900 -1.24314 37193 ft 423 kts 155°
2026-04-30 19:03 51.70247 -1.16263 37188 ft 423 kts 155°
2026-04-30 19:04 51.59571 -1.08238 37188 ft 423 kts 155°
2026-04-30 19:05 51.48894 -1.00252 37160 ft 423 kts 155°
2026-04-30 19:06 51.38933 -0.92840 37179 ft 424 kts 155°
2026-04-30 19:06 51.31120 -0.87052 37187 ft 423 kts 155°
2026-04-30 19:07 51.23214 -0.81216 37183 ft 423 kts 155°
2026-04-30 19:08 51.12619 -0.73431 37175 ft 423 kts 155°
2026-04-30 19:09 51.04595 -0.67560 37170 ft 424 kts 155°
2026-04-30 19:09 50.99235 -0.63652 37150 ft 424 kts 155°
2026-04-30 19:10 50.88506 -0.55858 37156 ft 424 kts 155°
2026-04-30 19:11 50.80503 -0.50069 37153 ft 424 kts 155°
2026-04-30 19:12 50.75141 -0.46204 37151 ft 424 kts 155°
2026-04-30 19:12 50.69771 -0.42342 37147 ft 424 kts 155°
2026-04-30 19:13 50.59023 -0.34642 37139 ft 425 kts 155°
2026-04-30 19:14 50.53637 -0.30798 37139 ft 425 kts 155°
2026-04-30 19:14 50.48247 -0.26961 37136 ft 425 kts 155°
2026-04-30 19:15 50.42853 -0.23131 37136 ft 426 kts 155°
2026-04-30 19:15 50.34754 -0.17397 37140 ft 426 kts 155°
2026-04-30 19:16 50.29335 -0.13573 37135 ft 427 kts 155°
2026-04-30 19:17 50.21217 -0.07862 37135 ft 428 kts 155°
2026-04-30 19:17 50.13070 -0.02149 37137 ft 428 kts 155°
2026-04-30 19:18 50.04580 0.02172 37139 ft 429 kts 165°
2026-04-30 19:19 49.98791 0.04419 37129 ft 429 kts 165°
2026-04-30 19:19 49.90113 0.07827 37125 ft 429 kts 165°
2026-04-30 19:20 49.84585 0.09993 37127 ft 430 kts 165°
2026-04-30 19:21 49.76879 0.13003 37125 ft 430 kts 165°
2026-04-30 19:22 49.65259 0.17544 37128 ft 431 kts 165°
2026-04-30 19:23 49.47858 0.24568 37126 ft 432 kts 165°
2026-04-30 19:24 49.39119 0.28063 37127 ft 432 kts 165°
2026-04-30 19:25 49.24576 0.33979 37126 ft 433 kts 163°
2026-04-30 19:26 49.12938 0.38909 37127 ft 434 kts 164°
2026-04-30 19:27 49.04186 0.42575 37122 ft 435 kts 164°
2026-04-30 19:28 48.95438 0.46225 37124 ft 436 kts 164°
2026-04-30 19:29 48.83734 0.51090 37128 ft 436 kts 164°
2026-04-30 19:30 48.71991 0.55828 37128 ft 437 kts 165°
2026-04-30 19:31 48.60212 0.60412 37124 ft 437 kts 165°
2026-04-30 19:31 48.51359 0.63862 37130 ft 438 kts 165°
2026-04-30 19:32 48.45478 0.66247 37126 ft 438 kts 164°
2026-04-30 19:32 48.39607 0.68651 37129 ft 438 kts 164°
2026-04-30 19:33 48.33714 0.71044 37127 ft 438 kts 164°
2026-04-30 19:33 48.27831 0.73423 37124 ft 438 kts 164°
2026-04-30 19:34 48.21931 0.75788 37125 ft 438 kts 165°
2026-04-30 19:35 48.13080 0.79259 37123 ft 438 kts 165°
2026-04-30 19:35 48.07174 0.81573 37121 ft 438 kts 165°
2026-04-30 19:36 48.01281 0.83879 37121 ft 438 kts 165°
2026-04-30 19:36 47.92423 0.87336 37123 ft 438 kts 165°
2026-04-30 19:37 47.86520 0.89633 37124 ft 438 kts 165°
2026-04-30 19:37 47.80612 0.91926 37123 ft 438 kts 165°
2026-04-30 19:38 47.74713 0.94210 37132 ft 438 kts 165°
2026-04-30 19:38 47.68852 0.96475 37129 ft 438 kts 165°
2026-04-30 19:39 47.62961 0.98746 37132 ft 438 kts 165°
2026-04-30 19:39 47.57065 1.01013 37127 ft 438 kts 165°
2026-04-30 19:40 47.51167 1.03276 37125 ft 437 kts 165°
2026-04-30 19:40 47.45268 1.05447 37126 ft 437 kts 168°
2026-04-30 19:41 47.39186 1.06397 37121 ft 438 kts 179°
2026-04-30 19:41 47.33121 1.06227 37125 ft 438 kts 180°
2026-04-30 19:42 47.26977 1.06068 37125 ft 438 kts 180°
2026-04-30 19:42 47.20883 1.05926 37125 ft 439 kts 180°
2026-04-30 19:43 47.14781 1.05785 37130 ft 439 kts 180°
2026-04-30 19:44 47.05603 1.05571 37139 ft 439 kts 180°
2026-04-30 19:44 46.99481 1.05403 37143 ft 440 kts 181°
2026-04-30 19:45 46.93365 1.05123 37145 ft 440 kts 181°
2026-04-30 19:45 46.87251 1.04847 37150 ft 440 kts 181°
2026-04-30 19:46 46.81127 1.04583 37152 ft 440 kts 181°
2026-04-30 19:46 46.74995 1.04322 37147 ft 440 kts 181°
2026-04-30 19:47 46.68871 1.04063 37146 ft 440 kts 181°
2026-04-30 19:47 46.62783 1.03805 37145 ft 441 kts 181°
2026-04-30 19:48 46.56665 1.03547 37142 ft 441 kts 181°
2026-04-30 19:48 46.50530 1.03887 37142 ft 441 kts 172°
2026-04-30 19:49 46.44529 1.05670 37144 ft 441 kts 167°
2026-04-30 19:49 46.35565 1.08704 37147 ft 442 kts 167°
2026-04-30 19:50 46.29582 1.10697 37148 ft 442 kts 167°
2026-04-30 19:50 46.23577 1.12693 37158 ft 443 kts 167°
2026-04-30 19:51 46.17565 1.14686 37168 ft 443 kts 167°
2026-04-30 19:51 46.11566 1.16672 37180 ft 443 kts 167°
2026-04-30 19:52 46.05553 1.18658 37189 ft 444 kts 167°
2026-04-30 19:52 45.99518 1.20646 37192 ft 444 kts 168°
2026-04-30 19:53 45.93495 1.22626 37193 ft 444 kts 168°
2026-04-30 19:53 45.87470 1.24602 37193 ft 444 kts 168°
2026-04-30 19:54 45.81456 1.26570 37192 ft 444 kts 168°
2026-04-30 19:54 45.75438 1.28536 37189 ft 444 kts 168°
2026-04-30 19:55 45.69417 1.30497 37184 ft 443 kts 168°
2026-04-30 19:55 45.63394 1.32455 37182 ft 443 kts 168°
2026-04-30 19:56 45.57424 1.34392 37179 ft 443 kts 168°
2026-04-30 19:56 45.51422 1.36334 37175 ft 443 kts 168°
2026-04-30 19:57 45.45351 1.38296 37169 ft 443 kts 168°
2026-04-30 19:57 45.39331 1.40235 37173 ft 443 kts 169°
2026-04-30 19:58 45.33361 1.42154 37168 ft 444 kts 169°
2026-04-30 19:58 45.27338 1.44086 37171 ft 444 kts 169°
2026-04-30 19:59 45.21300 1.46019 37174 ft 444 kts 169°
2026-04-30 20:00 45.12245 1.48911 37181 ft 445 kts 169°
2026-04-30 20:00 45.06206 1.50834 37182 ft 446 kts 169°
2026-04-30 20:01 44.97115 1.53722 37178 ft 447 kts 170°
2026-04-30 20:01 44.91046 1.55644 37184 ft 447 kts 170°
2026-04-30 20:02 44.81920 1.58526 37186 ft 449 kts 170°
2026-04-30 20:03 44.72772 1.61405 37193 ft 450 kts 170°
2026-04-30 20:03 44.66661 1.63325 37189 ft 451 kts 171°
2026-04-30 20:04 44.61555 1.64925 37183 ft 451 kts 171°
2026-04-30 20:05 44.52365 1.67798 37188 ft 452 kts 171°
2026-04-30 20:05 44.43139 1.70672 37188 ft 453 kts 171°
2026-04-30 20:06 44.36979 1.72585 37190 ft 454 kts 171°
2026-04-30 20:06 44.30818 1.74495 37186 ft 454 kts 171°
2026-04-30 20:07 44.24611 1.75993 37188 ft 452 kts 175°
2026-04-30 20:08 44.15286 1.78048 37195 ft 453 kts 175°
2026-04-30 20:08 44.09064 1.79421 37192 ft 453 kts 175°
2026-04-30 20:09 44.02837 1.80791 37188 ft 453 kts 175°
2026-04-30 20:09 43.93501 1.82638 37183 ft 449 kts 181°
2026-04-30 20:10 43.84142 1.83524 37180 ft 449 kts 181°
2026-04-30 20:11 43.74786 1.84428 37185 ft 449 kts 181°
2026-04-30 20:11 43.68551 1.85031 37178 ft 449 kts 181°
2026-04-30 20:12 43.59247 1.85930 37174 ft 449 kts 181°
2026-04-30 20:13 43.53014 1.86529 37170 ft 449 kts 181°
2026-04-30 20:13 43.46784 1.87127 37164 ft 449 kts 181°
2026-04-30 20:14 43.40557 1.87725 37176 ft 449 kts 181°
2026-04-30 20:14 43.34326 1.88320 37169 ft 448 kts 181°
2026-04-30 20:15 43.28107 1.88914 37162 ft 449 kts 181°
2026-04-30 20:15 43.21871 1.89510 37164 ft 449 kts 181°
2026-04-30 20:16 43.15642 1.90104 37170 ft 449 kts 181°
2026-04-30 20:16 43.09403 1.90696 37173 ft 449 kts 181°
2026-04-30 20:17 43.03167 1.91287 37174 ft 449 kts 181°
2026-04-30 20:17 42.96941 1.91877 37177 ft 449 kts 181°
2026-04-30 20:18 42.90703 1.92467 37177 ft 449 kts 181°
2026-04-30 20:18 42.84470 1.93056 37184 ft 449 kts 181°
2026-04-30 20:19 42.78242 1.93640 37187 ft 448 kts 181°
2026-04-30 20:19 42.72024 1.94287 37174 ft 449 kts 176°
2026-04-30 20:20 42.66005 1.96880 37178 ft 463 kts 156°
2026-04-30 20:20 42.60762 2.02039 37182 ft 468 kts 143°
2026-04-30 20:21 42.55758 2.07709 37187 ft 467 kts 144°
2026-04-30 20:21 42.50760 2.13320 37193 ft 471 kts 144°
2026-04-30 20:22 42.45720 2.18967 37185 ft 468 kts 144°
2026-04-30 20:22 42.40696 2.24582 37187 ft 470 kts 144°
2026-04-30 20:23 42.35666 2.30194 37181 ft 469 kts 144°
2026-04-30 20:23 42.30625 2.35806 37178 ft 469 kts 144°
2026-04-30 20:24 42.25587 2.41402 37176 ft 469 kts 144°
2026-04-30 20:24 42.20547 2.46990 37176 ft 469 kts 144°
2026-04-30 20:25 42.12980 2.55355 37164 ft 468 kts 144°
2026-04-30 20:26 42.05416 2.63691 37154 ft 468 kts 144°
2026-04-30 20:26 41.97855 2.71997 37154 ft 468 kts 144°
2026-04-30 20:27 41.87517 2.82551 37154 ft 466 kts 148°
2026-04-30 20:28 41.76970 2.92624 37147 ft 465 kts 148°
2026-04-30 20:30 41.63785 3.05158 37142 ft 465 kts 148°
2026-04-30 20:31 41.47962 3.19955 35543 ft 460 kts 153°
2026-04-30 20:32 41.39743 3.26697 33301 ft 464 kts 152°
2026-04-30 20:32 41.34225 3.31226 31642 ft 468 kts 152°
2026-04-30 20:33 41.31448 3.33501 30807 ft 471 kts 152°
2026-04-30 20:33 41.25873 3.38063 29408 ft 466 kts 152°
2026-04-30 20:33 41.23132 3.40305 28824 ft 460 kts 152°
2026-04-30 20:34 41.17750 3.44696 27635 ft 451 kts 152°
2026-04-30 20:34 41.12441 3.49013 26466 ft 442 kts 152°
2026-04-30 20:35 41.09825 3.51138 25909 ft 438 kts 152°
2026-04-30 20:35 41.07240 3.53234 25352 ft 434 kts 152°
2026-04-30 20:35 41.02135 3.57368 24263 ft 427 kts 152°
2026-04-30 20:36 40.99608 3.59412 23730 ft 424 kts 151°
2026-04-30 20:36 40.97103 3.61436 23123 ft 420 kts 151°
2026-04-30 20:36 40.92152 3.65432 21954 ft 412 kts 151°
2026-04-30 20:37 40.89725 3.67389 21397 ft 408 kts 151°
2026-04-30 20:37 40.87312 3.69331 20848 ft 404 kts 151°
2026-04-30 20:37 40.84916 3.71260 20306 ft 401 kts 151°
2026-04-30 20:37 40.82544 3.73165 19774 ft 397 kts 150°
2026-04-30 20:38 40.80198 3.75050 19249 ft 394 kts 150°
2026-04-30 20:38 40.77859 3.76927 18727 ft 391 kts 150°
2026-04-30 20:38 40.75547 3.78782 18191 ft 387 kts 150°
2026-04-30 20:39 40.70986 3.82438 17081 ft 381 kts 150°
2026-04-30 20:39 40.68760 3.84219 16555 ft 377 kts 151°
2026-04-30 20:39 40.66531 3.86002 16016 ft 374 kts 151°
2026-04-30 20:40 40.62107 3.89535 14983 ft 369 kts 151°
2026-04-30 20:40 40.59925 3.91276 14582 ft 363 kts 151°
2026-04-30 20:40 40.57788 3.92981 14300 ft 354 kts 151°
2026-04-30 20:41 40.53747 3.96203 14010 ft 323 kts 151°
2026-04-30 20:41 40.51853 3.97711 13735 ft 315 kts 151°
2026-04-30 20:41 40.49934 3.99052 13353 ft 310 kts 160°
2026-04-30 20:41 40.47917 3.99944 13019 ft 304 kts 168°
2026-04-30 20:42 40.45864 4.00650 12766 ft 306 kts 168°
2026-04-30 20:42 40.43805 4.01378 12514 ft 305 kts 167°
2026-04-30 20:42 40.39735 4.02834 12003 ft 301 kts 167°
2026-04-30 20:43 40.37721 4.03554 11756 ft 300 kts 167°
2026-04-30 20:43 40.35717 4.04267 11506 ft 298 kts 167°
2026-04-30 20:43 40.33718 4.04978 11262 ft 297 kts 167°
2026-04-30 20:44 40.29739 4.06390 10780 ft 295 kts 167°
2026-04-30 20:44 40.27766 4.07090 10534 ft 294 kts 167°
2026-04-30 20:44 40.23840 4.08482 10062 ft 291 kts 167°
2026-04-30 20:45 40.19953 4.09858 9549 ft 288 kts 167°
2026-04-30 20:45 40.18021 4.10541 9287 ft 287 kts 166°
2026-04-30 20:45 40.16101 4.11220 9035 ft 285 kts 166°
2026-04-30 20:46 40.10391 4.13235 8284 ft 281 kts 166°
2026-04-30 20:46 40.08473 4.13563 8024 ft 278 kts 187°
2026-04-30 20:47 40.05315 4.11008 7543 ft 277 kts 239°
2026-04-30 20:47 40.04619 4.08675 7312 ft 278 kts 252°
2026-04-30 20:48 40.03043 4.04110 6836 ft 277 kts 236°
2026-04-30 20:48 40.01873 4.02108 6592 ft 276 kts 228°
2026-04-30 20:48 40.00522 4.00341 6340 ft 275 kts 221°
2026-04-30 20:48 39.99030 3.98775 6097 ft 275 kts 215°
2026-04-30 20:49 39.97438 3.97409 5854 ft 274 kts 210°
2026-04-30 20:49 39.95769 3.96241 5599 ft 272 kts 204°
2026-04-30 20:49 39.94057 3.95281 5355 ft 270 kts 199°
2026-04-30 20:50 39.90468 3.93949 4869 ft 267 kts 189°
2026-04-30 20:50 39.88638 3.93592 4620 ft 266 kts 184°
2026-04-30 20:50 39.86788 3.93440 4366 ft 266 kts 179°
2026-04-30 20:50 39.84947 3.93495 4125 ft 265 kts 174°
2026-04-30 20:51 39.83118 3.93752 3873 ft 264 kts 169°
2026-04-30 20:51 39.80122 3.94627 3462 ft 262 kts 161°
2026-04-30 20:51 39.78406 3.95401 3214 ft 262 kts 156°
2026-04-30 20:52 39.76770 3.96344 3023 ft 258 kts 152°
2026-04-30 20:52 39.75192 3.97466 2998 ft 258 kts 147°
2026-04-30 20:52 39.72285 4.00183 2999 ft 257 kts 137°
2026-04-30 20:53 39.70959 4.01782 2997 ft 256 kts 133°
2026-04-30 20:53 39.69761 4.03488 2998 ft 257 kts 128°
2026-04-30 20:53 39.68680 4.05306 2998 ft 257 kts 124°
2026-04-30 20:54 39.66915 4.09150 2990 ft 231 kts 115°
2026-04-30 20:54 39.66293 4.10947 2998 ft 212 kts 111°
2026-04-30 20:54 39.65794 4.12694 2993 ft 196 kts 107°
2026-04-30 20:55 39.65327 4.15677 3004 ft 142 kts 83°
2026-04-30 20:55 39.65667 4.16800 2997 ft 134 kts 55°
2026-04-30 20:55 39.66398 4.17561 2996 ft 138 kts 29°
2026-04-30 20:56 39.68271 4.18174 2998 ft 141 kts 12°
2026-04-30 20:56 39.69235 4.18366 2993 ft 140 kts 13°
2026-04-30 20:56 39.71157 4.18760 2996 ft 139 kts 13°
2026-04-30 20:57 39.72115 4.18957 2996 ft 140 kts 13°
2026-04-30 20:57 39.73078 4.19155 2995 ft 140 kts 13°
2026-04-30 20:57 39.74042 4.19349 2887 ft 140 kts 13°
2026-04-30 20:58 39.75964 4.19725 2243 ft 142 kts 13°
2026-04-30 20:58 39.76925 4.19939 1966 ft 136 kts 15°
2026-04-30 20:58 39.77858 4.20134 1771 ft 137 kts 14°
2026-04-30 20:58 39.78807 4.20331 1572 ft 138 kts 14°
2026-04-30 20:59 39.80678 4.20716 1199 ft 135 kts 13°
2026-04-30 20:59 39.81592 4.20903 1021 ft 132 kts 12°
2026-04-30 21:00 39.83422 4.21279 666 ft 129 kts 12°
2026-04-30 21:00 39.85197 4.21644 334 ft 131 kts 12°
2026-04-30 21:01 39.86500 4.21925 299 ft 38 kts
2026-04-30 21:01 39.86671 4.21957 300 ft 25 kts 10°
2026-04-30 21:01 39.86884 4.22106 305 ft 0 kts 38°
2026-04-30 21:02 39.86897 4.22119 305 ft 6 kts 38°
2026-04-30 21:02 39.86936 4.22181 305 ft 11 kts 79°
2026-04-30 21:02 39.86888 4.22235 305 ft 12 kts 179°
2026-04-30 21:03 39.86794 4.22217 306 ft 16 kts 188°
2026-04-30 21:03 39.86675 4.22194 303 ft 19 kts 188°
2026-04-30 21:03 39.86563 4.22188 303 ft 15 kts 150°
2026-04-30 21:03 39.86566 4.22284 304 ft 11 kts 63°
2026-04-30 21:04 39.86579 4.22384 302 ft 12 kts 89°
2026-04-30 21:04 39.86573 4.22435 302 ft 0 kts 99°